Regional Weather Roundup
Issued by NWS

Home | Current Version | Previous Version | Text Only | Print | Product List | Glossary Off
Versions: 1 2 3 4 5 6 7 8 9 10 11 12 13 14 15 16 17 18 19 20 21 22 23 24 25 26 27 28 29 30 31 32 33 34 35 36 37 38 39 40 41 42 43 44 45 46 47 48 49 50

000
ASUS43 KDTX 212301
RWRMI
MICHIGAN HOURLY REGIONAL WEATHER ROUNDUP
NATIONAL WEATHER SERVICE DETROIT/PONTIAC MI
600 PM EST SAT JAN 21 2017

NOTE: "FAIR" INDICATES FEW OR NO CLOUDS BELOW 12,000 FEET WITH NO
SIGNIFICANT WEATHER AND/OR OBSTRUCTION TO VISIBILITY.

MIZ047>049-052>055-059>063-066>070-074>076-081>083-220000-
SOUTHEAST LOWER MICHIGAN

CITY           SKY/WX    TMP DP  RH WIND       PRES   REMARKS
ADRIAN         CLEAR     53  52  96 S5        29.60R
ALMA           FOG       47  46  97 NW6       29.56R VSB<1/4
ANN ARBOR      CLEAR     54  51  90 SE3       29.59S
BAD AXE        FOG       43  43 100 E3        29.62S VSB 1/2
CARO           FOG       47  47 100 SE7       29.59R VSB 3/4
DETROIT CITY   PTCLDY    52  51  97 S6        29.62R
DETROIT        PTCLDY    53  50  89 SE6       29.61S
FLINT          CLEAR     48  46  93 SE7       29.58S
GROSSE ILE     MOCLDY    45  45  99 S7        29.60F FOG
HILLSDALE      CLEAR     52  50  93 SE7       29.57S
HOWELL         CLEAR     52  48  87 SE8       29.57R

CITY           SKY/WX    TMP DP  RH WIND       PRES   REMARKS
JACKSON        CLEAR     54  48  80 S8        29.57R
LAMBERTVILLE   CLOUDY    58  51  77 SE3       29.60S
LANSING        CLEAR     53  47  79 SE12      29.55R
LAPEER         FOG       47  46  99 SE5       29.61R VSB 1/4
MASON          CLEAR     52  49  90 SE8       29.56S
MONROE         CLOUDY    51  50  97 S9        29.60S
MT. CLEMENS    FOG       38  38 100 N5        29.60R VSB 1/8 WCI  35
PONTIAC        PTCLDY    48  46  93 SE5       29.59S FOG
PORT HOPE        N/A     37  36  96 CALM      29.61S
PORT HURON     CLOUDY    48  46  93 CALM      29.63R FOG
TRI CITIES     FOG       45  45 100 E9        29.57S VSB 1/16
MIDLAND        FOG       42  41  96 E7        29.56F VSB 1/2
TROY           CLEAR     52  49  89 CALM      29.63R
SAGINAW HB     CLOUDY    46  45  93 E5        29.57S FOG
$$
MIZ043>046-050>051-056>058-064>065-071>073-077>080-220000-
SOUTHWEST LOWER MICHIGAN

CITY           SKY/WX    TMP DP  RH WIND       PRES   REMARKS
BATTLE CREEK   CLEAR     54  49  83 S8        29.54R
BENTON HARBOR  MOCLDY    58  48  69 SW6       29.52R
BIG RAPIDS     FOG       43  42  97 E3        29.54R VSB<1/4
COLDWATER      CLEAR     55  51  88 SE7       29.55S
FREMONT        CLOUDY    49  49 100 E6        29.50S FOG
HOLLAND        MOCLDY    53  47  79 SW6       29.52R
GRAND RAPIDS   PTCLDY    52  46  80 S8        29.52R
IONIA          FAIR      51  47  88 S7        29.53R
KALAMAZOO      CLEAR     57  48  72 S7        29.54R
LUDINGTON      FOG       47  47 100 SE6       29.50R VSB 3/4
MARSHALL       CLEAR     55  51  87 SE6       29.54S
MOUNT PLEASANT FOG       46  45  98 E3        29.55R VSB 1/4
MUSKEGON       PTCLDY    53  47  79 S8        29.51R
SOUTH HAVEN    MOCLDY    58  49  73 SW7       29.52R
$$
MIZ016>042-220000-
NORTHERN LOWER MICHIGAN

CITY           SKY/WX    TMP DP  RH WIND       PRES   REMARKS
ALPENA         FOG       37  36  96 SE7       29.62S VSB 1/4 WCI  32
BEAVER ISLAND  FOG       35  35 100 E12       29.53F VSB 1   WCI  27
BELLAIRE       CLOUDY    45  44  98 E3        29.51F
CADILLAC       FOG       40  39  97 SE6       29.53R VSB 1/2
CHARLEVOIX     CLOUDY    42  42  98 CALM      29.55S
FRANKFORT      CLOUDY    46  45  96 E6        29.49S
GAYLORD        FOG       42  38  85 SE7       29.54S VSB 1/4
GRAYLING       FOG       39  39  99 SE8       29.56S VSB 1/4 WCI  34
HARBOR SPRINGS DRIZZLE   38  38  99 E13       29.54S WCI  30
HOUGHTON LAKE  FOG       39  39 100 E9        29.55F VSB 1/4 WCI  33
MANISTEE       CLOUDY    45  45 100 SE7       29.50R FOG
OSCODA         FOG       38  37  97 SE3       29.62R VSB 1/4
PELLSTON       LGT RAIN  36  35  96 E10       29.57S FOG     WCI  28
ROGERS CITY    FOG       37  37  97 SE6       29.62R VSB 1/4 WCI  33
TRAVERSE CITY  CLOUDY    45  41  86 VRB3      29.52R
$$
MIZ007>008-015-220000-
EASTERN UPPER MICHIGAN

CITY           SKY/WX    TMP DP  RH WIND       PRES   REMARKS
KINROSS        MIX PCPN  35  34  96 E16       29.61R VSB 1/2 WCI  25
MACKINAC ISLAN SNOW      35  35 100 E17G25    29.58F VSB 1/4 WCI  25
NEWBERRY       FOG       34  33  96 E13       29.55F VSB 3/4 WCI  25
S. S. MARIE    CLOUDY    36  35  96 E6        29.62R FOG     WCI  31
MUNISING         N/A     37  36  96 CALM      29.52S
$$
MIZ004>006-011>014-085-220000-
CENTRAL UPPER MICHIGAN

CITY           SKY/WX    TMP DP  RH WIND       PRES   REMARKS
MANISTIQUE     FOG       35  34  97 E7        29.53S VSB 3/4 WCI  29
ESCANABA       MIX PCPN  35  35 100 NE6       29.51S FOG     WCI  30
SAWYER-GWINN   FOG       34  34 100 E5        29.50S VSB 1/2 WCI  30
$$
MIZ001>003-009>011-084-220000-
WESTERN UPPER MICHIGAN

CITY           SKY/WX    TMP DP  RH WIND       PRES   REMARKS
IRON MOUNTAIN  LGT RAIN  35  33  92 CALM      29.48R VSB 1/2
HOUGHTON       FOG       34  32  92 E14G22    29.49F VSB 1/4 WCI  25
COPPER HARBOR    N/A     36  35  96 VRB3      29.53F
IRONWOOD       RAIN      36  36 100 CALM      29.46R VSB 3/4
$$

ABBREVIATIONS USED IN REMARKS
   TC - TEMPERATURE IN CELSIUS
  WCI - WIND CHILL INDEX
   HX - HEAT INDEX
  VSB - VISIBILITY





USA.gov is the U.S. government's official web portal to all federal, state and local government web resources and services.